Time,TemperatureF,DewpointF,PressureIn,WindDirection,WindDirectionDegrees,WindSpeedMPH,WindSpeedGustMPH,Humidity,HourlyPrecipIn,Conditions,Clouds,dailyrainin,SolarRadiationWatts/m^2,SoftwareType,DateUTC
2013-06-12 00:03:00,52.0,52.0,-100.00,East,82,1.0,3.0,99,0.04,,,1.30,0.000000,,2013-06-12 04:03:00,
2013-06-12 00:13:00,52.0,52.0,-100.00,East,82,1.0,3.0,99,0.04,,,1.30,0.000000,,2013-06-12 04:13:00,
2013-06-12 00:23:00,52.0,52.0,-100.00,East,82,1.0,3.0,99,0.04,,,1.30,0.000000,,2013-06-12 04:23:00,
2013-06-12 00:53:00,52.0,52.0,-100.00,South,190,1.0,3.0,99,0.01,,,1.29,0.000000,,2013-06-12 04:53:00,
2013-06-12 01:03:00,52.0,52.0,-100.00,South,190,1.0,3.0,99,0.01,,,1.29,0.000000,,2013-06-12 05:03:00,
2013-06-12 01:12:00,52.0,52.0,-100.00,South,190,1.0,3.0,99,0.01,,,1.29,0.000000,,2013-06-12 05:12:00,
2013-06-12 01:22:00,52.0,52.0,-100.00,South,190,1.0,3.0,99,0.01,,,1.29,0.000000,,2013-06-12 05:22:00,
2013-06-12 01:52:00,51.0,51.0,-100.00,SSE,153,1.0,2.0,100,0.01,,,1.29,0.000000,,2013-06-12 05:52:00,
2013-06-12 02:02:00,51.0,51.0,-100.00,SSE,153,1.0,2.0,100,0.01,,,1.29,0.000000,,2013-06-12 06:02:00,
2013-06-12 02:12:00,51.0,51.0,-100.00,SSE,153,1.0,2.0,100,0.01,,,1.29,0.000000,,2013-06-12 06:12:00,
2013-06-12 02:22:00,51.0,51.0,-100.00,SSE,153,1.0,2.0,100,0.01,,,1.29,0.000000,,2013-06-12 06:22:00,
2013-06-12 02:52:00,52.0,52.0,-100.00,WSW,238,1.0,3.0,100,0.00,,,1.28,0.000000,,2013-06-12 06:52:00,
2013-06-12 03:02:00,52.0,52.0,-100.00,WSW,238,1.0,3.0,100,0.00,,,1.28,0.000000,,2013-06-12 07:02:00,
2013-06-12 03:12:00,52.0,52.0,-100.00,WSW,238,1.0,3.0,100,0.00,,,1.28,0.000000,,2013-06-12 07:12:00,
2013-06-12 03:22:00,52.0,52.0,-100.00,WSW,238,1.0,3.0,100,0.00,,,1.28,0.000000,,2013-06-12 07:22:00,
2013-06-12 03:53:00,51.0,51.0,-100.00,WSW,252,2.0,4.0,100,0.00,,,1.28,0.000000,,2013-06-12 07:53:00,
2013-06-12 04:02:00,51.0,51.0,-100.00,WSW,252,2.0,4.0,100,0.00,,,1.28,0.000000,,2013-06-12 08:02:00,
2013-06-12 04:12:00,51.0,51.0,-100.00,WSW,252,2.0,4.0,100,0.00,,,1.28,0.000000,,2013-06-12 08:12:00,
2013-06-12 04:22:00,51.0,51.0,-100.00,WSW,252,2.0,4.0,100,0.00,,,1.28,0.000000,,2013-06-12 08:22:00,
2013-06-12 04:53:00,51.0,51.0,-100.00,SW,226,1.0,4.0,100,0.00,,,1.27,0.000000,,2013-06-12 08:53:00,
2013-06-12 05:01:00,51.0,51.0,-100.00,SW,226,1.0,4.0,100,0.00,,,1.27,0.000000,,2013-06-12 09:01:00,
2013-06-12 05:12:00,51.0,51.0,-100.00,SW,226,1.0,4.0,100,0.00,,,1.27,0.000000,,2013-06-12 09:12:00,
2013-06-12 05:22:00,51.0,51.0,-100.00,SW,226,1.0,4.0,100,0.00,,,1.27,0.000000,,2013-06-12 09:22:00,
2013-06-12 05:53:00,51.0,51.0,-100.00,WNW,288,2.0,3.0,99,0.01,,,1.21,1.000000,,2013-06-12 09:53:00,
2013-06-12 06:02:00,51.0,51.0,-100.00,WNW,288,2.0,3.0,99,0.01,,,1.21,1.000000,,2013-06-12 10:02:00,
2013-06-12 06:12:00,51.0,51.0,-100.00,WNW,288,2.0,3.0,99,0.01,,,1.21,1.000000,,2013-06-12 10:12:00,
2013-06-12 06:23:00,51.0,51.0,-100.00,WNW,288,2.0,3.0,99,0.01,,,1.21,1.000000,,2013-06-12 10:23:00,
2013-06-12 06:53:00,52.0,52.0,-100.00,NW,307,3.0,10.0,99,0.00,,,1.06,24.000000,,2013-06-12 10:53:00,
2013-06-12 07:02:00,52.0,52.0,-100.00,NW,307,3.0,10.0,99,0.00,,,1.06,24.000000,,2013-06-12 11:02:00,
2013-06-12 07:12:00,52.0,52.0,-100.00,NW,307,3.0,10.0,99,0.00,,,1.06,24.000000,,2013-06-12 11:12:00,
2013-06-12 07:24:00,52.0,52.0,-100.00,NW,307,3.0,10.0,99,0.00,,,1.06,24.000000,,2013-06-12 11:24:00,
2013-06-12 07:53:00,52.0,51.0,-100.00,NW,326,3.0,11.0,97,0.01,,,0.99,47.000000,,2013-06-12 11:53:00,
2013-06-12 08:02:00,52.0,51.0,-100.00,NW,326,3.0,11.0,97,0.01,,,0.99,47.000000,,2013-06-12 12:02:00,
2013-06-12 08:11:00,52.0,51.0,-100.00,NW,326,3.0,11.0,97,0.01,,,0.99,47.000000,,2013-06-12 12:11:00,
2013-06-12 08:23:00,52.0,51.0,-100.00,NW,326,3.0,11.0,97,0.01,,,0.99,47.000000,,2013-06-12 12:23:00,
2013-06-12 08:53:00,54.0,52.0,-100.00,NW,316,4.0,10.0,94,0.00,,,0.92,101.000000,,2013-06-12 12:53:00,
2013-06-12 09:02:00,54.0,52.0,-100.00,NW,316,4.0,10.0,94,0.00,,,0.92,101.000000,,2013-06-12 13:02:00,
2013-06-12 09:12:00,54.0,52.0,-100.00,NW,316,4.0,10.0,94,0.00,,,0.92,101.000000,,2013-06-12 13:12:00,
2013-06-12 09:22:00,54.0,52.0,-100.00,NW,316,4.0,10.0,94,0.00,,,0.92,101.000000,,2013-06-12 13:22:00,
2013-06-12 09:53:00,54.0,52.0,-100.00,NNW,329,4.0,13.0,92,0.00,,,0.84,139.000000,,2013-06-12 13:53:00,
2013-06-12 10:02:00,54.0,52.0,-100.00,NNW,329,4.0,13.0,92,0.00,,,0.84,139.000000,,2013-06-12 14:02:00,
2013-06-12 10:11:00,54.0,52.0,-100.00,NNW,329,4.0,13.0,92,0.00,,,0.84,139.000000,,2013-06-12 14:11:00,
2013-06-12 10:24:00,54.0,52.0,-100.00,NNW,329,4.0,13.0,92,0.00,,,0.84,139.000000,,2013-06-12 14:24:00,
2013-06-12 10:53:00,56.0,52.0,-100.00,NW,322,5.0,15.0,88,0.00,,,0.76,227.000000,,2013-06-12 14:53:00,
2013-06-12 11:02:00,56.0,52.0,-100.00,NW,322,5.0,15.0,88,0.00,,,0.76,227.000000,,2013-06-12 15:02:00,
2013-06-12 11:12:00,56.0,52.0,-100.00,NW,322,5.0,15.0,88,0.00,,,0.76,227.000000,,2013-06-12 15:12:00,
2013-06-12 11:23:00,56.0,52.0,-100.00,NW,322,5.0,15.0,88,0.00,,,0.76,227.000000,,2013-06-12 15:23:00,
2013-06-12 11:52:00,57.0,53.0,-100.00,NW,317,6.0,15.0,85,0.00,,,0.60,259.000000,,2013-06-12 15:52:00,
2013-06-12 12:02:00,57.0,53.0,-100.00,NW,317,6.0,15.0,85,0.00,,,0.60,259.000000,,2013-06-12 16:02:00,
2013-06-12 12:12:00,57.0,53.0,-100.00,NW,317,6.0,15.0,85,0.00,,,0.60,259.000000,,2013-06-12 16:12:00,
2013-06-12 12:22:00,57.0,53.0,-100.00,NW,317,6.0,15.0,85,0.00,,,0.60,259.000000,,2013-06-12 16:22:00,
2013-06-12 12:53:00,56.0,52.0,-100.00,NW,318,5.0,16.0,87,0.00,,,0.40,229.000000,,2013-06-12 16:53:00,
2013-06-12 13:02:00,56.0,52.0,-100.00,NW,318,5.0,16.0,87,0.00,,,0.40,229.000000,,2013-06-12 17:02:00,
2013-06-12 13:12:00,56.0,52.0,-100.00,NW,318,5.0,16.0,87,0.00,,,0.40,229.000000,,2013-06-12 17:12:00,
2013-06-12 13:23:00,56.0,52.0,-100.00,NW,318,5.0,16.0,87,0.00,,,0.40,229.000000,,2013-06-12 17:23:00,
2013-06-12 13:52:00,57.0,53.0,-100.00,NNW,340,4.0,13.0,88,0.01,,,0.26,201.000000,,2013-06-12 17:52:00,
2013-06-12 14:02:00,57.0,53.0,-100.00,NNW,340,4.0,13.0,88,0.01,,,0.26,201.000000,,2013-06-12 18:02:00,
2013-06-12 14:12:00,57.0,53.0,-100.00,NNW,340,4.0,13.0,88,0.01,,,0.26,201.000000,,2013-06-12 18:12:00,
2013-06-12 14:22:00,57.0,53.0,-100.00,NNW,340,4.0,13.0,88,0.01,,,0.26,201.000000,,2013-06-12 18:22:00,
2013-06-12 14:53:00,58.0,53.0,-100.00,NNW,336,5.0,20.0,83,0.00,,,0.16,309.000000,,2013-06-12 18:53:00,
2013-06-12 15:02:00,58.0,53.0,-100.00,NNW,336,5.0,20.0,83,0.00,,,0.16,309.000000,,2013-06-12 19:02:00,
2013-06-12 15:11:00,58.0,53.0,-100.00,NNW,336,5.0,20.0,83,0.00,,,0.16,309.000000,,2013-06-12 19:11:00,
2013-06-12 15:22:00,58.0,53.0,-100.00,NNW,336,5.0,20.0,83,0.00,,,0.16,309.000000,,2013-06-12 19:22:00,
2013-06-12 15:52:00,59.0,52.0,-100.00,NW,325,5.0,14.0,79,0.00,,,0.10,254.000000,,2013-06-12 19:52:00,
2013-06-12 16:02:00,59.0,52.0,-100.00,NW,325,5.0,14.0,79,0.00,,,0.10,254.000000,,2013-06-12 20:02:00,
2013-06-12 16:12:00,59.0,52.0,-100.00,NW,325,5.0,14.0,79,0.00,,,0.10,254.000000,,2013-06-12 20:12:00,
2013-06-12 16:22:00,59.0,52.0,-100.00,NW,325,5.0,14.0,79,0.00,,,0.10,254.000000,,2013-06-12 20:22:00,
2013-06-12 16:54:00,60.0,53.0,-100.00,NW,318,3.0,12.0,77,0.00,,,0.10,217.000000,,2013-06-12 20:54:00,
2013-06-12 17:01:00,60.0,53.0,-100.00,NW,318,3.0,12.0,77,0.00,,,0.10,217.000000,,2013-06-12 21:01:00,
2013-06-12 17:12:00,60.0,53.0,-100.00,NW,318,3.0,12.0,77,0.00,,,0.10,217.000000,,2013-06-12 21:12:00,
2013-06-12 17:22:00,60.0,53.0,-100.00,NW,318,3.0,12.0,77,0.00,,,0.10,217.000000,,2013-06-12 21:22:00,
2013-06-12 17:53:00,59.0,54.0,-100.00,West,272,2.0,10.0,83,0.00,,,0.10,144.000000,,2013-06-12 21:53:00,
2013-06-12 18:01:00,59.0,54.0,-100.00,West,272,2.0,10.0,83,0.00,,,0.10,144.000000,,2013-06-12 22:01:00,
2013-06-12 18:11:00,59.0,54.0,-100.00,West,272,2.0,10.0,83,0.00,,,0.10,144.000000,,2013-06-12 22:11:00,
2013-06-12 18:22:00,59.0,54.0,-100.00,West,272,2.0,10.0,83,0.00,,,0.10,144.000000,,2013-06-12 22:22:00,
2013-06-12 18:53:00,59.0,54.0,-100.00,SW,227,2.0,5.0,84,0.00,,,0.10,82.000000,,2013-06-12 22:53:00,
2013-06-12 19:02:00,59.0,54.0,-100.00,SW,227,2.0,5.0,84,0.00,,,0.10,82.000000,,2013-06-12 23:02:00,
2013-06-12 19:12:00,59.0,54.0,-100.00,SW,227,2.0,5.0,84,0.00,,,0.10,82.000000,,2013-06-12 23:12:00,
2013-06-12 19:22:00,59.0,54.0,-100.00,SW,227,2.0,5.0,84,0.00,,,0.10,82.000000,,2013-06-12 23:22:00,
2013-06-12 19:53:00,61.0,54.0,-100.00,NW,306,2.0,5.0,79,0.00,,,0.10,121.000000,,2013-06-12 23:53:00,
2013-06-12 20:02:00,61.0,54.0,-100.00,NW,306,2.0,5.0,79,0.00,,,0.10,121.000000,,2013-06-13 00:02:00,
2013-06-12 20:12:00,61.0,54.0,-100.00,NW,306,2.0,5.0,79,0.00,,,0.10,121.000000,,2013-06-13 00:12:00,
2013-06-12 20:22:00,61.0,54.0,-100.00,NW,306,2.0,5.0,79,0.00,,,0.10,121.000000,,2013-06-13 00:22:00,
2013-06-12 20:52:00,57.0,55.0,-100.00,SE,137,2.0,6.0,94,0.00,,,0.10,24.000000,,2013-06-13 00:52:00,
2013-06-12 21:01:00,57.0,55.0,-100.00,SE,137,2.0,6.0,94,0.00,,,0.10,24.000000,,2013-06-13 01:01:00,
2013-06-12 21:12:00,57.0,55.0,-100.00,SE,137,2.0,6.0,94,0.00,,,0.10,24.000000,,2013-06-13 01:12:00,
2013-06-12 21:22:00,57.0,55.0,-100.00,SE,137,2.0,6.0,94,0.00,,,0.10,24.000000,,2013-06-13 01:22:00,
2013-06-12 21:53:00,55.0,54.0,-100.00,SW,227,2.0,6.0,98,0.10,,,0.20,0.000000,,2013-06-13 01:53:00,
2013-06-12 22:02:00,55.0,54.0,-100.00,SW,227,2.0,6.0,98,0.10,,,0.20,0.000000,,2013-06-13 02:02:00,
2013-06-12 22:12:00,55.0,54.0,-100.00,SW,227,2.0,6.0,98,0.10,,,0.20,0.000000,,2013-06-13 02:12:00,
2013-06-12 22:22:00,55.0,54.0,-100.00,SW,227,2.0,6.0,98,0.10,,,0.20,0.000000,,2013-06-13 02:22:00,
2013-06-12 22:52:00,53.0,53.0,-100.00,SE,125,1.0,5.0,99,0.01,,,0.20,0.000000,,2013-06-13 02:52:00,
2013-06-12 23:02:00,53.0,53.0,-100.00,SE,125,1.0,5.0,99,0.01,,,0.20,0.000000,,2013-06-13 03:02:00,
2013-06-12 23:12:00,53.0,53.0,-100.00,SE,125,1.0,5.0,99,0.01,,,0.20,0.000000,,2013-06-13 03:12:00,
2013-06-12 23:22:00,53.0,53.0,-100.00,SE,125,1.0,5.0,99,0.01,,,0.20,0.000000,,2013-06-13 03:22:00,
2013-06-12 23:52:00,50.0,50.0,-100.00,ESE,123,2.0,3.0,99,0.00,,,0.16,0.000000,,2013-06-13 03:52:00,